Terminal Aerodrome Forecast
Issued by NWS

Home | Current Version | Previous Version | Text Only | Print | Product List | Glossary On
Versions: 1 2 3 4 5 6 7 8 9 10 11 12 13 14
000
FTUS41 KBTV 030520
TAFMSS
TAF
KMSS 030520Z 0306/0406 22012KT 6SM RA BKN050 OVC090 WS020/23040KT
     FM031000 21014G22KT P6SM -RA BKN050 OVC090
     FM031500 22015G26KT P6SM VCSH BKN040 BKN080
     FM040000 25012KT P6SM -SHRA SCT060 BKN150=

USA.gov is the U.S. government's official web portal to all federal, state and local government web resources and services.